This demonstration page uses our WeatherBlox Daily Observations layout. Learn more.

Left ArrowRight Arrow

Hourly Observations for June 11, 2015

Temp ( °F °C ) Dew Point ( °F °C ) Humidity (%) Winds ( mph kmh ) Pressure ( in mb ) Visibility ( mi km ) Precip ( " mm )
12:27 am 00:27 Cloudy with Heavy Thunderstorms 67 19.4 65 18.3 93 93 N 16 26 29.71 1006 2.5 4.02335 0.1 2.54
12:34 am 00:34 Cloudy with Heavy Thunderstorms 67 19.4 65 18.3 93 93 W 23 37 29.77 1008 1.5 2.41401 0.19 4.826
12:38 am 00:38 Cloudy with Nearby Thunderstorms 66 19 64 18 94 94 W 31 50 29.77 1008 0.75 1.207005 N/A
12:41 am 00:41 Cloudy with Heavy Thunderstorms 66 18.9 65 18.3 96 96 NW 22 35 29.77 1008 0.5 0.80467 0.29 7.366
12:54 am 00:54 Cloudy with Heavy Thunderstorms 66 18.9 65 18.3 96 96 N 18 30 29.75 1008 1.5 2.41401 0.8 20.32
12:57 am 00:57 Cloudy with Heavy Thunderstorms 66 18.9 65 18.3 96 96 N 17 28 29.77 1008 2 3.21868 0.02 0.508
1:03 am 01:03 Cloudy with Heavy Rain 66 19 64 18 94 94 NNW 18 30 29.77 1008 2.5 4.02335 N/A
1:11 am 01:11 Cloudy with Rain 66 18.9 65 18.3 96 96 NNW 14 22 29.77 1008 4 6.43736 0.09 2.286
1:43 am 01:43 Cloudy with Rain 66 19 64 18 94 94 NE 12 19 29.74 1007 3 4.82802 N/A
1:54 am 01:54 Cloudy with Rain 66 18.9 64 17.8 93 93 NE 16 26 29.71 1006 3 4.82802 0.27 6.858
2:54 am 02:54 Cloudy with Light Rain 66 18.9 64 17.8 93 93 E 16 26 29.7 1006 6 9.65604 0.16 4.064
3:44 am 03:44 Cloudy with Rain 66 18.9 64 17.8 93 93 ESE 6 9 29.68 1005 4 6.43736 0.09 2.286
3:54 am 03:54 Mostly Cloudy with Light Rain 66 18.9 64 17.8 93 93 ESE 9 15 29.67 1005 6 9.65604 0.11 2.794
4:01 am 04:01 Cloudy with Light Rain 66 18.9 65 18.3 96 96 ESE 8 13 29.68 1005 5 8.0467 N/A
4:25 am 04:25 Cloudy with Light Rain 66 18.9 65 18.3 96 96 ESE 8 13 29.68 1005 5 8.0467 0.04 1.016
4:54 am 04:54 Mostly Cloudy with Light Rain 67 19.4 65 18.3 93 93 ESE 9 15 29.67 1005 7 11.26538 0.07 1.778
5:01 am 05:01 Mostly Cloudy with Light Rain 66 19 64 18 94 94 ESE 8 13 29.68 1005 6 9.65604 N/A
5:54 am 05:54 Mostly Cloudy with Light Rain 65 18.3 64 17.8 97 97 ESE 10 17 29.66 1004 6 9.65604 0.01 0.254
6:40 am 06:40 Cloudy with Light Thunderstorms 66 19 64 18 94 94 SE 8 13 29.68 1005 4 6.43736 N/A
6:49 am 06:49 Cloudy with Heavy Rain 66 19 64 18 94 94 SE 6 9 29.68 1005 2.5 4.02335 N/A
6:54 am 06:54 Cloudy with Heavy Rain 65 18.3 64 17.8 97 97 SE 7 11 29.69 1005 2 3.21868 0.09 2.286
7:07 am 07:07 Cloudy with Nearby Thunderstorms 66 18.9 65 18.3 96 96 SSE 5 7 29.68 1005 3 4.82802 0.08 2.032
7:28 am 07:28 Cloudy with Heavy Thunderstorms 66 18.9 65 18.3 96 96 SSE 13 20 29.68 1005 2.5 4.02335 0.16 4.064
7:39 am 07:39 Cloudy with Thunderstorms 67 19.4 66 18.9 97 97 SSE 15 24 29.68 1005 4 6.43736 0.19 4.826
7:51 am 07:51 Cloudy with Thunderstorms 66 19 66 19 100 100 S 15 24 29.68 1005 3 4.82802 0.23 5.842
7:54 am 07:54 Cloudy with Nearby Thunderstorms 67 19.4 66 18.9 97 97 S 14 22 29.67 1005 2.5 4.02335 0.25 6.35
8:07 am 08:07 Cloudy with Light Rain 68 20 67 19.4 96 96 SSE 10 17 29.68 1005 5 8.0467 0.08 2.032
8:22 am 08:22 Cloudy with Nearby Thunderstorms 68 20 66 19 94 94 SSE 8 13 29.68 1005 10 16.0934 N/A
8:37 am 08:37 Cloudy 69 20.6 67 19.4 93 93 N N/A 29.65 1004 10 16.0934 0.08 2.032
8:54 am 08:54 Cloudy 69 20.6 67 19.4 93 93 SE 5 7 29.66 1004 10 16.0934 0.08 2.032
9:54 am 09:54 Mostly Cloudy 73 22.8 69 20.6 87 87 SSE 9 15 29.66 1004 10 16.0934 N/A
10:09 am 10:09 Cloudy 73 22.8 69 20.6 87 87 SE 10 17 29.62 1003 10 16.0934 N/A
10:27 am 10:27 Cloudy 74 23.3 69 20.6 85 85 SE 10 17 29.62 1003 10 16.0934 N/A
10:54 am 10:54 Cloudy 74 23.3 69 20.6 85 85 ESE 8 13 29.66 1005 10 16.0934 N/A
11:54 am 11:54 Cloudy 72 22.2 69 20.6 91 91 NNE 10 17 29.65 1004 10 16.0934 N/A
12:37 pm 12:37 Cloudy 73 23 70 21 89 89 ENE 12 19 29.62 1003 10 16.0934 N/A
12:46 pm 12:46 Cloudy 73 22.8 69 20.6 87 87 NE 10 17 29.62 1003 10 16.0934 N/A
12:54 pm 12:54 Cloudy 73 22.8 69 20.6 87 87 NE 12 19 29.65 1004 10 16.0934 N/A
1:12 pm 13:12 Cloudy 73 22.8 69 20.6 87 87 NNE 13 20 29.62 1003 10 16.0934 N/A
1:29 pm 13:29 Cloudy 73 22.8 70 21.1 90 90 N 14 22 29.62 1003 10 16.0934 N/A
1:54 pm 13:54 Mostly Cloudy 75 23.9 70 21.1 84 84 NNE 12 19 29.65 1004 10 16.0934 N/A
2:54 pm 14:54 Cloudy 71 21.7 67 19.4 87 87 N 18 30 29.65 1004 10 16.0934 N/A
3:54 pm 15:54 Cloudy 70 21.1 66 18.9 87 87 N 16 26 29.66 1005 10 16.0934 N/A
4:35 pm 16:35 Cloudy with Light Rain 69 20.6 66 18.9 90 90 N 16 26 29.65 1004 2 3.21868 N/A
4:54 pm 16:54 Cloudy with Mist and Fog 68 20 66 18.9 93 93 N 17 28 29.68 1005 2 3.21868 N/A
5:01 pm 17:01 Cloudy 68 20 66 18.9 93 93 N 17 28 29.68 1005 7 11.26538 N/A
5:27 pm 17:27 Cloudy 69 20.6 65 18.3 87 87 N 15 24 29.65 1004 10 16.0934 N/A
5:54 pm 17:54 Cloudy 69 20.6 65 18.3 87 87 N 15 24 29.7 1006 9 14.48406 N/A
6:54 pm 18:54 Cloudy 68 20 63 17.2 84 84 N 21 33 29.7 1006 7 11.26538 N/A
7:54 pm 19:54 Cloudy 67 19.4 62 16.7 84 84 N 18 30 29.72 1007 10 16.0934 N/A
8:30 pm 20:30 Cloudy 66 19 61 16 83 83 N 14 22 29.74 1007 10 16.0934 N/A
8:54 pm 20:54 Cloudy 66 18.9 62 16.7 87 87 N 14 22 29.75 1008 9 14.48406 N/A
9:10 pm 21:10 Cloudy 66 18.9 62 16.7 87 87 N 16 26 29.74 1007 10 16.0934 N/A
9:37 pm 21:37 Cloudy 66 18.9 61 16.1 84 84 N 16 26 29.77 1008 8 12.87472 N/A
9:54 pm 21:54 Cloudy 66 18.9 61 16.1 84 84 N 16 26 29.77 1008 8 12.87472 N/A
10:37 pm 22:37 Cloudy 64 18 61 16 88 88 N 20 31 29.77 1008 10 16.0934 N/A
10:54 pm 22:54 Cloudy 65 18.3 60 15.6 84 84 N 18 30 29.8 1009 10 16.0934 N/A
11:54 pm 23:54 Cloudy 64 17.8 60 15.6 87 87 N 13 20 29.81 1009 10 16.0934 N/A

Powered by AerisWeather